AAL39 EGLL-KMIA

Flight info

Callsign AAL39
Flight time N/A
Altitude 34000
Route CPT DCT DIDZA L9 OKSAW DCT BIBPE DCT BUCGO DCT FELCA DCT OFSOX DCT BANBA DCT ADARA/M083F350 NATF MUSAK/M082F360 N278C GAYBL DCT 41N065W DCT DRYED M201 VEGAA/M082F380 M201 VIRST Y494 WHOOS/N0470F380 Y494 WEAKK Y493 BAHAA AR15 HIBAC TARPN3
Aircraft B77W/H-SDE1E2E3FGHIJ2J3J4J5M1RWXY/LB1D1

Departure

Time N/A
Airport London Heathrow Airport (EGLL)

Arrival

Time 2026-04-30 19:01
Airport Miami International Airport (KMIA)
Time Latitude Longitude Altitude Speed Heading
2026-04-30 15:18 44.85180 -59.05952 32309 ft 445 kts 213°
2026-04-30 15:19 44.78033 -59.14318 32982 ft 449 kts 224°
2026-04-30 17:39 32.81882 -75.76489 37877 ft 415 kts 240°
2026-04-30 17:42 32.63123 -76.02745 37879 ft 419 kts 239°
2026-04-30 17:43 32.53625 -76.15981 37884 ft 430 kts 239°
2026-04-30 17:44 32.41850 -76.32302 37877 ft 437 kts 239°
2026-04-30 17:47 32.24111 -76.56759 37880 ft 435 kts 239°
2026-04-30 17:48 32.10288 -76.75719 37887 ft 439 kts 239°
2026-04-30 17:50 31.94164 -76.97711 37843 ft 447 kts 238°
2026-04-30 17:51 31.87328 -77.05430 37884 ft 458 kts 232°
2026-04-30 17:52 31.80270 -77.13024 37903 ft 459 kts 233°
2026-04-30 17:54 31.59053 -77.35941 37902 ft 464 kts 233°
2026-04-30 17:56 31.39963 -77.56415 37897 ft 467 kts 232°
2026-04-30 17:58 31.25775 -77.71980 37907 ft 460 kts 239°
2026-04-30 18:00 31.10777 -77.95702 37909 ft 456 kts 243°
2026-04-30 18:01 31.01333 -78.10595 37914 ft 457 kts 243°
2026-04-30 18:02 30.90003 -78.28389 37922 ft 457 kts 242°
2026-04-30 18:04 30.78568 -78.46117 37911 ft 458 kts 242°
2026-04-30 18:06 30.63349 -78.69721 37932 ft 457 kts 240°
2026-04-30 18:08 30.49216 -78.89721 37929 ft 457 kts 238°
2026-04-30 18:09 30.40080 -79.00112 37938 ft 478 kts 219°
2026-04-30 18:10 30.27486 -79.06056 37934 ft 493 kts 207°
2026-04-30 18:11 30.05070 -79.15683 37935 ft 491 kts 208°
2026-04-30 18:13 29.89159 -79.22580 37930 ft 490 kts 208°
2026-04-30 18:14 29.73192 -79.29474 37945 ft 490 kts 208°
2026-04-30 18:15 29.54020 -79.37721 37942 ft 494 kts 208°
2026-04-30 18:16 29.41150 -79.43239 37938 ft 496 kts 208°
2026-04-30 18:17 29.34676 -79.46008 37941 ft 497 kts 207°
2026-04-30 18:18 29.24952 -79.50163 37948 ft 498 kts 207°
2026-04-30 18:18 29.18452 -79.52938 37948 ft 498 kts 207°
2026-04-30 18:19 29.12018 -79.55680 37905 ft 498 kts 207°
2026-04-30 18:19 29.05863 -79.59050 37965 ft 483 kts 220°
2026-04-30 18:20 29.00345 -79.63384 37960 ft 481 kts 222°
2026-04-30 18:20 28.94864 -79.67768 37950 ft 482 kts 221°
2026-04-30 18:21 28.89335 -79.72043 37948 ft 484 kts 221°
2026-04-30 18:21 28.83729 -79.76293 37939 ft 484 kts 220°
2026-04-30 18:22 28.78073 -79.80565 37956 ft 490 kts 220°
2026-04-30 18:22 28.69490 -79.87048 37956 ft 496 kts 220°
2026-04-30 18:23 28.63777 -79.91357 37956 ft 497 kts 220°
2026-04-30 18:23 28.58012 -79.95699 37930 ft 497 kts 220°
2026-04-30 18:24 28.49385 -80.02187 37940 ft 495 kts 220°
2026-04-30 18:25 28.43642 -80.06501 37945 ft 494 kts 220°
2026-04-30 18:25 28.35078 -80.12923 37944 ft 493 kts 220°
2026-04-30 18:26 28.26492 -80.19351 37938 ft 492 kts 219°
2026-04-30 18:27 28.17919 -80.25762 37939 ft 492 kts 219°
2026-04-30 18:28 28.08617 -80.30603 37945 ft 517 kts 188°
2026-04-30 18:28 28.04993 -80.30367 37949 ft 530 kts 171°
2026-04-30 18:28 27.98038 -80.27520 37944 ft 534 kts 161°
2026-04-30 18:29 27.84069 -80.21574 37953 ft 538 kts 163°
2026-04-30 18:30 27.77096 -80.18736 37867 ft 526 kts 163°
2026-04-30 18:30 27.70398 -80.15999 37116 ft 505 kts 163°
2026-04-30 18:31 27.67117 -80.14659 36822 ft 500 kts 163°
2026-04-30 18:31 27.60640 -80.12009 36108 ft 490 kts 163°
2026-04-30 18:32 27.54276 -80.09412 35316 ft 483 kts 163°
2026-04-30 18:32 27.51170 -80.08148 34943 ft 481 kts 164°
2026-04-30 18:32 27.44844 -80.05578 34730 ft 481 kts 164°
2026-04-30 18:33 27.41713 -80.04305 34704 ft 475 kts 164°
2026-04-30 18:33 27.35569 -80.01806 34000 ft 466 kts 164°
2026-04-30 18:33 27.32532 -80.00572 33456 ft 465 kts 164°
2026-04-30 18:34 27.29501 -79.99340 32986 ft 462 kts 164°
2026-04-30 18:34 27.23504 -79.96905 32173 ft 453 kts 164°
2026-04-30 18:34 27.20598 -79.95727 31773 ft 453 kts 165°
2026-04-30 18:35 27.17610 -79.94520 31611 ft 455 kts 165°
2026-04-30 18:35 27.11693 -79.92128 31595 ft 450 kts 165°
2026-04-30 18:36 27.02931 -79.88591 31530 ft 443 kts 163°
2026-04-30 18:36 26.97126 -79.86253 31399 ft 442 kts 163°
2026-04-30 18:37 26.94269 -79.85102 31329 ft 442 kts 163°
2026-04-30 18:37 26.91371 -79.84025 31208 ft 435 kts 172°
2026-04-30 18:37 26.88396 -79.83788 31008 ft 426 kts 190°
2026-04-30 18:37 26.85550 -79.84507 30926 ft 415 kts 204°
2026-04-30 18:38 26.82847 -79.85609 30898 ft 413 kts 205°
2026-04-30 18:38 26.77448 -79.87837 30687 ft 414 kts 204°
2026-04-30 18:39 26.72042 -79.90021 30571 ft 413 kts 203°
2026-04-30 18:39 26.69333 -79.91103 30416 ft 414 kts 203°
2026-04-30 18:39 26.66641 -79.92174 29753 ft 415 kts 203°
2026-04-30 18:39 26.63936 -79.93246 28925 ft 407 kts 203°
2026-04-30 18:40 26.61303 -79.94289 28151 ft 399 kts 203°
2026-04-30 18:40 26.58706 -79.95319 27389 ft 391 kts 203°
2026-04-30 18:40 26.56171 -79.96325 26652 ft 384 kts 203°
2026-04-30 18:40 26.53672 -79.97314 25945 ft 378 kts 203°
2026-04-30 18:41 26.51215 -79.98298 25231 ft 373 kts 205°
2026-04-30 18:41 26.48826 -79.99384 24538 ft 370 kts 206°
2026-04-30 18:41 26.46449 -80.00514 23882 ft 372 kts 206°
2026-04-30 18:41 26.44061 -80.01641 23189 ft 373 kts 206°
2026-04-30 18:42 26.41596 -80.02527 22405 ft 375 kts 193°
2026-04-30 18:42 26.36440 -80.03013 20951 ft 371 kts 188°
2026-04-30 18:42 26.33889 -80.03267 20251 ft 368 kts 189°
2026-04-30 18:45 26.10073 -80.06395 13073 ft 326 kts 190°
2026-04-30 18:45 26.07832 -80.06695 12327 ft 323 kts 189°
2026-04-30 18:45 26.05603 -80.06971 11584 ft 320 kts 189°
2026-04-30 18:46 26.03401 -80.07210 10887 ft 317 kts 188°
2026-04-30 18:46 26.01212 -80.07442 10196 ft 314 kts 188°
2026-04-30 18:46 25.99052 -80.07659 9479 ft 311 kts 187°
2026-04-30 18:46 25.96917 -80.07850 8913 ft 302 kts 187°
2026-04-30 18:47 25.94906 -80.08024 8786 ft 281 kts 187°
2026-04-30 18:47 25.93017 -80.08238 8739 ft 265 kts 189°
2026-04-30 18:47 25.91175 -80.08470 8828 ft 278 kts 187°
2026-04-30 18:47 25.89211 -80.08648 8846 ft 287 kts 186°
2026-04-30 18:48 25.87227 -80.08803 8837 ft 285 kts 186°
2026-04-30 18:48 25.85254 -80.08973 8834 ft 282 kts 187°
2026-04-30 18:48 25.83319 -80.09165 8840 ft 279 kts 187°
2026-04-30 18:48 25.81377 -80.09375 8554 ft 283 kts 187°
2026-04-30 18:49 25.79419 -80.09545 8367 ft 284 kts 186°
2026-04-30 18:49 25.77408 -80.09691 8289 ft 294 kts 185°
2026-04-30 18:49 25.75364 -80.09816 8256 ft 289 kts 185°
2026-04-30 18:49 25.73422 -80.09968 8044 ft 279 kts 186°
2026-04-30 18:50 25.71500 -80.10176 7676 ft 272 kts 188°
2026-04-30 18:50 25.69654 -80.10375 7193 ft 268 kts 187°
2026-04-30 18:50 25.67806 -80.10605 6678 ft 266 kts 195°
2026-04-30 18:50 25.66183 -80.11493 6155 ft 260 kts 223°
2026-04-30 18:51 25.65194 -80.13109 5782 ft 250 kts 251°
2026-04-30 18:51 25.64868 -80.14971 5540 ft 249 kts 266°
2026-04-30 18:51 25.64892 -80.16930 5338 ft 258 kts 271°
2026-04-30 18:51 25.64990 -80.18918 5238 ft 256 kts 272°
2026-04-30 18:52 25.65096 -80.20871 5243 ft 253 kts 272°
2026-04-30 18:52 25.65205 -80.22799 5252 ft 252 kts 272°
2026-04-30 18:52 25.65315 -80.24747 5246 ft 254 kts 272°
2026-04-30 18:52 25.65428 -80.26697 5254 ft 254 kts 272°
2026-04-30 18:53 25.65538 -80.28664 5258 ft 258 kts 272°
2026-04-30 18:53 25.65650 -80.30654 5236 ft 256 kts 272°
2026-04-30 18:53 25.65765 -80.32612 5235 ft 253 kts 272°
2026-04-30 18:53 25.65876 -80.34547 5239 ft 252 kts 272°
2026-04-30 18:54 25.65951 -80.35829 5239 ft 252 kts 272°
2026-04-30 18:54 25.66100 -80.38424 5236 ft 253 kts 272°
2026-04-30 18:54 25.66215 -80.40364 5103 ft 258 kts 273°
2026-04-30 18:54 25.66332 -80.42355 4848 ft 259 kts 272°
2026-04-30 18:55 25.66453 -80.44334 4603 ft 256 kts 273°
2026-04-30 18:55 25.66693 -80.48233 4074 ft 250 kts 272°
2026-04-30 18:55 25.67041 -80.50077 3814 ft 244 kts 294°
2026-04-30 18:56 25.69715 -80.52119 3304 ft 246 kts 355°
2026-04-30 18:56 25.71390 -80.52041 3113 ft 244 kts
2026-04-30 18:56 25.73065 -80.51883 3075 ft 240 kts
2026-04-30 18:57 25.76338 -80.51371 3005 ft 234 kts 26°
2026-04-30 18:57 25.77578 -80.50181 3006 ft 243 kts 59°
2026-04-30 18:57 25.78069 -80.48428 2989 ft 237 kts 89°
2026-04-30 18:58 25.78048 -80.44804 2386 ft 234 kts 88°
2026-04-30 18:58 25.78134 -80.43038 2068 ft 223 kts 89°
2026-04-30 18:58 25.78203 -80.41395 1802 ft 208 kts 89°
2026-04-30 18:59 25.78326 -80.38407 1263 ft 179 kts 89°
2026-04-30 19:00 25.78490 -80.34828 627 ft 135 kts 92°
2026-04-30 19:00 25.78521 -80.33749 486 ft 145 kts 91°
2026-04-30 19:00 25.78616 -80.31488 122 ft 149 kts 90°
2026-04-30 19:01 25.78690 -80.29505 27 ft 85 kts 86°
2026-04-30 19:01 25.78710 -80.28990 29 ft 41 kts 86°
2026-04-30 19:02 25.78861 -80.28637 27 ft 24 kts 38°
2026-04-30 19:02 25.78929 -80.28581 30 ft 0 kts 36°
2026-04-30 19:03 25.79042 -80.28492 28 ft 13 kts 35°
2026-04-30 19:04 25.79204 -80.28409 27 ft 13 kts 343°
2026-04-30 19:04 25.79312 -80.28584 30 ft 13 kts 297°
2026-04-30 19:05 25.79403 -80.28769 27 ft 14 kts 298°
2026-04-30 19:05 25.79502 -80.28963 29 ft 15 kts 308°
2026-04-30 19:06 25.79700 -80.28991 29 ft 15 kts 354°
2026-04-30 19:06 25.79803 -80.29002 31 ft 15 kts 354°
2026-04-30 19:06 25.79930 -80.28898 30 ft 4 kts 88°
2026-04-30 19:07 25.79932 -80.28829 31 ft 5 kts 88°
2026-04-30 19:07 25.79933 -80.28793 31 ft 5 kts 88°
2026-04-30 19:08 25.79939 -80.28625 29 ft 16 kts 86°
2026-04-30 19:08 25.79946 -80.28481 27 ft 2 kts 86°
2026-04-30 19:08 25.79947 -80.28472 25 ft 0 kts 87°
2026-04-30 19:09 25.79948 -80.28442 27 ft 15 kts 87°
2026-04-30 19:09 25.79954 -80.28277 24 ft 26 kts 88°
2026-04-30 19:10 25.79959 -80.27808 24 ft 11 kts 90°
2026-04-30 19:10 25.79825 -80.27719 25 ft 1 kts 178°
2026-04-30 19:11 25.79805 -80.27720 27 ft 3 kts 179°
2026-04-30 19:11 25.79803 -80.27720 27 ft 0 kts 178°
2026-04-30 19:11 25.79801 -80.27720 27 ft 0 kts 179°
2026-04-30 19:12 25.79795 -80.27720 26 ft 0 kts 179°